Omaha Offutt, NE

12:08 AM CDT on May 28, 2017 (GMT -0500)
Offutt Air Force Base

Weather History for KOFF - December, 2013

Change the Weather History Date:

Sunday, December 8, 2013

  Actual Average Record
Temperature  
Mean Temperature 12 °F -  
Max Temperature 18 °F 40 °F 54 °F (2015)
Min Temperature 3 °F 22 °F -2 °F (2005)
Degree Days  
Heating Degree Days 52    
Moisture  
Dew Point 11 °F    
Average Humidity 86    
Maximum Humidity 100    
Minimum Humidity 53    
Precipitation  
Precipitation 0.04 in - - ()
Snow  
Snow 0.00 in - - ()
Snow Depth 3.00 in    
Sea Level Pressure  
Sea Level Pressure 30.15 in    
Wind  
Wind Speed 9 mph (East)    
Max Wind Speed 15 mph    
Max Gust Speed -    
Visibility 5 miles    
Events Snow    
Averages and records for this station are not official NWS values.
T = Trace of Precipitation, MM = Missing Value Source: NWS Daily Summary

Daily Weather History Graph

Daily Weather History Graph

Search for Another Location

Airport or City:

Trip Planner

Search our weather history database for the weather conditions in past years. The results will help you decide how hot, cold, wet, or windy it might be!

Date:

Astronomy

Dec. 08, 2013 Rise Set
Actual Time 7:36 AM CST 4:54 PM CST
Civil Twilight 7:05 AM CST 5:25 PM CST
Nautical Twilight 6:30 AM CST 6:00 PM CST
Astronomical Twilight 5:57 AM CST 6:33 PM CST
Moon 11:55 AM CST (12/8) 11:48 PM CST (12/8)
Length of Visible Light 10h 20m
Length of Day
9h 18m
Waxing Crescent, 40% of the Moon is Illuminated
Dec 8
Waxing Crescent
Dec 9
First Quarter
Dec 17
Full
Dec 25
Last Quarter
Jan 1
New

Hourly Weather History & Observations

Time (CST) Temp. Windchill Dew Point Humidity Pressure Visibility Wind Dir Wind Speed Gust Speed Precip Events Conditions
12:15 AM 14.0 °F 1.2 °F -0.4 °F 53% 30.40 in 10.0 mi East 10.4 mph - N/A   Overcast
12:58 AM 13.6 °F 0.7 °F -0.0 °F 55% 30.45 in 10.0 mi East 10.4 mph - N/A   Mostly Cloudy
1:18 AM 14.0 °F -0.2 °F -0.4 °F 53% 30.35 in 10.0 mi East 12.7 mph - N/A Snow Light Snow
1:32 AM 14.0 °F -0.2 °F 1.4 °F 57% 30.34 in 10.0 mi East 12.7 mph - N/A Snow Light Snow
1:42 AM 14.0 °F -1.4 °F 3.2 °F 62% 30.34 in 7.0 mi East 15.0 mph - N/A Snow Light Snow
1:52 AM 14.0 °F 0.5 °F 3.2 °F 62% 30.33 in 4.0 mi East 11.5 mph - N/A Snow Light Snow
1:58 AM 13.1 °F -2.0 °F 4.8 °F 70% 30.40 in 3.0 mi East 13.8 mph - 0.00 in Snow Light Snow
2:03 AM 12.2 °F -1.0 °F 6.8 °F 79% 30.32 in 3.0 mi East 10.4 mph - N/A Snow Light Snow
2:18 AM 12.2 °F -1.0 °F 6.8 °F 79% 30.31 in 5.0 mi East 10.4 mph - N/A Snow Light Snow
2:28 AM 12.2 °F -1.8 °F 6.8 °F 79% 30.30 in 8.0 mi East 11.5 mph - N/A Snow Light Snow
2:58 AM 13.3 °F -1.8 °F 5.0 °F 70% 30.37 in 10.0 mi East 13.8 mph - 0.00 in   Overcast
3:56 AM 14.0 °F 0.5 °F 5.0 °F 67% 30.25 in 6.0 mi East 11.5 mph - N/A Snow Light Snow
3:59 AM 14.0 °F 0.5 °F 5.0 °F 67% 30.33 in 6.0 mi East 11.5 mph - 0.00 in Snow Light Snow
4:37 AM 14.0 °F -0.2 °F 5.0 °F 67% 30.22 in 5.0 mi East 12.7 mph - N/A Snow Light Snow
4:58 AM 13.8 °F 1.0 °F 6.1 °F 71% 30.29 in 8.0 mi East 10.4 mph - 0.00 in Snow Light Snow
5:15 AM 14.0 °F 1.2 °F 6.8 °F 73% 30.20 in 4.0 mi ESE 10.4 mph - N/A Snow Light Snow
5:20 AM 14.0 °F -0.2 °F 8.6 °F 79% 30.20 in 3.0 mi ESE 12.7 mph - N/A Snow Light Snow
5:27 AM 14.0 °F 2.9 °F 8.6 °F 79% 30.19 in 2.5 mi ESE 8.1 mph - N/A Snow Light Snow
5:32 AM 14.0 °F 1.2 °F 8.6 °F 79% 30.19 in 2.0 mi East 10.4 mph - N/A Snow Light Snow
5:46 AM 14.0 °F 1.2 °F 10.4 °F 86% 30.19 in 3.0 mi East 10.4 mph - N/A Snow Light Snow
5:58 AM 14.0 °F 1.2 °F 10.4 °F 86% 30.26 in 3.0 mi East 10.4 mph - 0.02 in Snow Light Snow
6:03 AM 12.2 °F -0.2 °F 10.4 °F 92% 30.18 in 2.0 mi East 9.2 mph - N/A Snow Light Snow
6:13 AM 12.2 °F -1.0 °F 10.4 °F 92% 30.18 in 2.5 mi East 10.4 mph - N/A Snow Light Snow
6:28 AM 12.2 °F -1.0 °F 10.4 °F 92% 30.17 in 1.8 mi East 10.4 mph - N/A Snow Light Snow
6:33 AM 12.2 °F -1.0 °F 10.4 °F 92% 30.17 in 2.0 mi East 10.4 mph - N/A Snow Light Snow
6:38 AM 12.2 °F -1.8 °F 10.4 °F 92% 30.17 in 1.8 mi East 11.5 mph - N/A Snow Light Snow
6:58 AM 13.1 °F 0.9 °F 10.6 °F 90% 30.24 in 1.5 mi East 9.2 mph - 0.00 in Snow Light Snow
7:23 AM 12.2 °F -1.0 °F 10.4 °F 92% 30.16 in 2.0 mi East 10.4 mph - N/A Snow Light Snow
7:28 AM 12.2 °F -1.8 °F 10.4 °F 92% 30.16 in 1.5 mi East 11.5 mph - N/A Snow Light Snow
7:33 AM 12.2 °F -0.2 °F 10.4 °F 92% 30.16 in 1.2 mi East 9.2 mph - N/A Snow Light Snow
7:38 AM 12.2 °F 0.7 °F 10.4 °F 92% 30.15 in 1.0 mi East 8.1 mph - N/A Snow Light Snow
7:53 AM 12.2 °F 0.7 °F 10.4 °F 92% 30.16 in 1.0 mi East 8.1 mph - N/A Snow Light Snow
7:58 AM 12.9 °F 0.7 °F 11.3 °F 93% 30.24 in 1.0 mi East 9.2 mph - 0.00 in Snow Light Snow
8:18 AM 12.2 °F 0.7 °F 12.2 °F 100% 30.15 in 1.0 mi East 8.1 mph - N/A Snow Light Snow
8:28 AM 12.2 °F 0.7 °F 12.2 °F 100% 30.15 in 1.0 mi East 8.1 mph - N/A Snow Light Snow
8:33 AM 12.2 °F 0.7 °F 12.2 °F 100% 30.15 in 1.0 mi East 8.1 mph - N/A Snow Light Snow
8:38 AM 14.0 °F 3.9 °F 12.2 °F 93% 30.15 in 1.2 mi East 6.9 mph - N/A Snow Light Snow
8:48 AM 14.0 °F 3.9 °F 12.2 °F 93% 30.15 in 1.0 mi East 6.9 mph - N/A Snow Light Snow
8:58 AM 14.0 °F 3.9 °F 12.2 °F 93% 30.22 in 1.0 mi East 6.9 mph - 0.00 in Snow Light Snow
9:03 AM 14.0 °F 3.9 °F 12.2 °F 93% 30.15 in 1.2 mi East 6.9 mph - N/A Snow Light Snow
9:33 AM 14.0 °F 3.9 °F 12.2 °F 93% 30.14 in 1.5 mi East 6.9 mph - N/A Snow Light Snow
9:58 AM 14.0 °F 5.1 °F 12.2 °F 93% 30.22 in 1.5 mi East 5.8 mph - 0.00 in Snow Light Snow
10:03 AM 14.0 °F 3.9 °F 12.2 °F 93% 30.13 in 1.8 mi East 6.9 mph - N/A Snow Light Snow
10:08 AM 14.0 °F 5.1 °F 12.2 °F 93% 30.13 in 2.0 mi East 5.8 mph - N/A Snow Light Snow
10:28 AM 15.8 °F 5.1 °F 12.2 °F 86% 30.13 in 3.0 mi East 8.1 mph - N/A Snow Light Snow
10:58 AM 15.8 °F 5.1 °F 12.2 °F 86% 30.18 in 2.5 mi East 8.1 mph - 0.00 in Snow Light Snow
11:18 AM 17.6 °F 7.3 °F 12.2 °F 79% 30.10 in 1.8 mi ESE 8.1 mph - N/A Snow Light Snow
11:23 AM 17.6 °F 8.2 °F 14.0 °F 86% 30.10 in 2.0 mi East 6.9 mph - N/A Snow Light Snow
11:33 AM 17.6 °F 7.3 °F 14.0 °F 86% 30.09 in 3.0 mi East 8.1 mph - N/A Snow Light Snow
11:43 AM 17.6 °F 9.3 °F 14.0 °F 86% 30.09 in 2.5 mi East 5.8 mph - N/A Snow Light Snow
11:58 AM 17.2 °F 8.9 °F 13.8 °F 86% 30.15 in 2.0 mi East 5.8 mph - 0.00 in Snow Light Snow
12:32 PM 17.6 °F 9.3 °F 14.0 °F 86% 30.06 in 4.0 mi East 5.8 mph - N/A Snow Light Snow
12:52 PM 17.6 °F 9.3 °F 14.0 °F 86% 30.05 in 10.0 mi ESE 5.8 mph - N/A Snow Light Snow
12:58 PM 18.3 °F 10.2 °F 13.8 °F 83% 30.12 in 10.0 mi ESE 5.8 mph - 0.00 in Snow Light Snow
1:08 PM 17.6 °F 9.3 °F 14.0 °F 86% 30.04 in 10.0 mi ESE 5.8 mph - N/A Snow Light Snow
1:13 PM 17.6 °F 9.3 °F 12.2 °F 79% 30.04 in 10.0 mi SE 5.8 mph - N/A Snow Light Snow
1:18 PM 17.6 °F 9.3 °F 12.2 °F 79% 30.04 in 10.0 mi SE 5.8 mph - N/A Snow Light Snow
1:33 PM 17.6 °F 12.3 °F 12.2 °F 79% 30.04 in 10.0 mi SE 3.5 mph - N/A Snow Light Snow
1:53 PM 17.6 °F - 12.2 °F 79% 30.03 in 10.0 mi Variable 1.2 mph - N/A Snow Light Snow
1:58 PM 18.5 °F - 13.3 °F 80% 30.09 in 10.0 mi SE 2.3 mph - 0.00 in Snow Light Snow
2:23 PM 17.6 °F - 14.0 °F 86% 30.01 in 4.0 mi East 1.2 mph - N/A Snow Light Snow
2:28 PM 17.6 °F - 14.0 °F 86% 30.01 in 4.0 mi Calm Calm - N/A Snow Light Snow
2:53 PM 17.6 °F - 14.0 °F 86% 30.01 in 2.5 mi Calm Calm - N/A Snow Light Snow
2:58 PM 18.5 °F - 14.4 °F 84% 30.08 in 2.5 mi Calm Calm - 0.00 in Snow Light Snow
3:58 PM 17.6 °F - 15.3 °F 91% 30.08 in 2.0 mi WNW 1.2 mph - 0.00 in Snow Light Snow
4:08 PM 17.6 °F 12.3 °F 15.8 °F 93% 30.01 in 4.0 mi West 3.5 mph - N/A Snow Light Snow
4:38 PM 17.6 °F 9.3 °F 15.8 °F 93% 30.02 in 10.0 mi WNW 5.8 mph - N/A Snow Light Snow
4:48 PM 17.6 °F 10.7 °F 15.8 °F 93% 30.02 in 10.0 mi WNW 4.6 mph - N/A Snow Light Snow
4:58 PM 17.4 °F 10.4 °F 16.2 °F 95% 30.09 in 10.0 mi WNW 4.6 mph - 0.00 in Snow Light Snow
5:23 PM 17.6 °F 10.7 °F 15.8 °F 93% 30.03 in 6.0 mi WNW 4.6 mph - N/A Snow Light Snow
5:43 PM 17.6 °F 9.3 °F 15.8 °F 93% 30.03 in 6.0 mi WNW 5.8 mph - N/A Snow Light Snow
5:48 PM 17.6 °F 9.3 °F 15.8 °F 93% 30.04 in 8.0 mi WNW 5.8 mph - N/A Snow Light Snow
5:58 PM 17.2 °F 6.8 °F 15.8 °F 94% 30.12 in 10.0 mi WNW 8.1 mph - 0.00 in Snow Light Snow
6:13 PM 17.6 °F 8.2 °F 15.8 °F 93% 30.06 in 9.0 mi WNW 6.9 mph - N/A Snow Light Snow
6:23 PM 17.6 °F 7.3 °F 15.8 °F 93% 30.06 in 7.0 mi WNW 8.1 mph - N/A Snow Light Snow
6:28 PM 17.6 °F 7.3 °F 15.8 °F 93% 30.07 in 7.0 mi West 8.1 mph - N/A Snow Light Snow
6:38 PM 17.6 °F 8.2 °F 15.8 °F 93% 30.08 in 5.0 mi West 6.9 mph - N/A Snow Light Snow
6:58 PM 16.9 °F 5.5 °F 16.0 °F 96% 30.15 in 2.5 mi WNW 9.2 mph - 0.00 in Snow Light Snow
7:03 PM 17.6 °F 8.2 °F 15.8 °F 93% 30.08 in 3.0 mi WNW 6.9 mph - N/A Snow Light Snow
7:13 PM 15.8 °F 4.2 °F 15.8 °F 100% 30.09 in 4.0 mi NW 9.2 mph - N/A Snow Light Snow
7:18 PM 15.8 °F 4.2 °F 15.8 °F 100% 30.09 in 4.0 mi NW 9.2 mph - N/A Snow Light Snow
7:58 PM 16.2 °F 6.5 °F 15.4 °F 97% 30.17 in 3.0 mi WNW 6.9 mph - 0.00 in Snow Light Snow
8:38 PM 15.8 °F 5.1 °F 15.8 °F 100% 30.10 in 5.0 mi WNW 8.1 mph - N/A Snow Light Snow
8:43 PM 15.8 °F 5.1 °F 15.8 °F 100% 30.10 in 5.0 mi WNW 8.1 mph - N/A Snow Light Snow
8:48 PM 15.8 °F 5.1 °F 15.8 °F 100% 30.10 in 5.0 mi WNW 8.1 mph - N/A Snow Light Snow
8:53 PM 15.8 °F 6.1 °F 14.0 °F 93% 30.10 in 5.0 mi WNW 6.9 mph - N/A Snow Light Snow
8:58 PM 15.4 °F 5.6 °F 14.4 °F 95% 30.17 in 6.0 mi WNW 6.9 mph - 0.02 in Snow Light Snow
9:08 PM 14.0 °F 2.9 °F 14.0 °F 100% 30.10 in 10.0 mi WNW 8.1 mph - N/A Snow Light Snow
9:34 PM 10.4 °F -2.4 °F 8.6 °F 92% 30.10 in 10.0 mi WNW 9.2 mph - N/A   Clear
9:58 PM 11.3 °F -1.3 °F 10.2 °F 95% 30.19 in 10.0 mi West 9.2 mph - 0.00 in   Clear
10:58 PM 7.5 °F -6.0 °F 5.9 °F 93% 30.21 in 10.0 mi WNW 9.2 mph - N/A   Clear
11:58 PM 3.6 °F -7.3 °F 2.1 °F 94% 30.22 in 10.0 mi NW 5.8 mph - N/A   Partly Cloudy